User: anonymous   Login
Location: Unspecified
(0.0000°N, 0.0000°E)
Time: 03:30:22
(UTC+00:00)
Language:

Jikiken - Orbit

View from above orbital plane
View from above orbital plane
View from above satellite
View from above satellite

Ground track
Ground track

The orbit data is extracted from the following two-line orbital elements,

1 11027U 78087A   17173.89586705 +.00337646 -11032-5 +21018-3 0  9995
2 11027 031.1143 294.1600 2953310 252.6417 073.3266 09.74875584441483
Epoch (UTC): 22 June 2017 21:30:02
Eccentricity: 0.2953310
inclination: 31.1143°
perigee height: 144 km
apogee height: 5612 km
right ascension of ascending node: 294.1600°
argument of perigee: 252.6417°
revolutions per day: 9.74875584
mean anomaly at epoch: 73.3266°
orbit number at epoch: 44148

The dashed part of the orbit path shows where the satellite is in the earth's shadow,  

DLR